This is the latest recevied weather packets stored in our database for station/object KD0RIH. If no packets are shown the sender has not sent any weather packets the latest 10 day(s).
| Time | Temp. | Humidity | Pressure | Rain* | Wind** | Luminosity | Snow |
|---|---|---|---|---|---|---|---|
| 1777074926 | 21.67° C | 43% | 1010.2 hPa | 0 mm | - | 43 W/m² | - |
| 1777074622 | 21.67° C | 44% | 1010.1 hPa | 0 mm | - | 47 W/m² | - |
| 1777074316 | 21.67° C | 42% | 1010.1 hPa | 0 mm | - | 52 W/m² | - |
| 1777074015 | 22.22° C | 42% | 1010.2 hPa | 0 mm | - | 62 W/m² | - |
| 1777073709 | 22.22° C | 42% | 1010.1 hPa | 0 mm | - | 81 W/m² | - |
| 1777073406 | 22.78° C | 41% | 1010.2 hPa | 0 mm | - | 75 W/m² | - |
| 1777073101 | 23.89° C | 40% | 1010 hPa | 0 mm | - | 92 W/m² | - |
| 1777072797 | 25° C | 39% | 1010 hPa | 0 mm | - | 109 W/m² | - |
| 1777072496 | 24.44° C | 39% | 1009.9 hPa | 0 mm | - | 160 W/m² | - |
| 1777072196 | 24.44° C | 39% | 1010 hPa | 0 mm | - | 178 W/m² | - |
| 1777071893 | 25° C | 37% | 1010 hPa | 0 mm | - | 195 W/m² | - |
| 1777071589 | 25° C | 37% | 1010 hPa | 0 mm | - | 214 W/m² | - |
| 1777071284 | 25.56° C | 37% | 1009.9 hPa | 0 mm | - | 233 W/m² | - |
| 1777070979 | 26.11° C | 37% | 1009.9 hPa | 0 mm | - | 252 W/m² | - |
| 1777070677 | 25.56° C | 36% | 1009.8 hPa | 0 mm | - | 272 W/m² | - |
| 1777070373 | 25.56° C | 35% | 1009.9 hPa | 0 mm | - | 293 W/m² | - |
| 1777070073 | 26.11° C | 35% | 1010 hPa | 0 mm | - | 313 W/m² | - |
| 1777069772 | 26.11° C | 37% | 1009.8 hPa | 0 mm | - | 333 W/m² | - |
| 1777069467 | 25.56° C | 36% | 1009.8 hPa | 0 mm | - | 353 W/m² | - |
| 1777069164 | 26.11° C | 35% | 1010 hPa | 0 mm | - | 373 W/m² | - |
| 1777068861 | 26.11° C | 35% | 1009.8 hPa | 0 mm | - | 393 W/m² | - |
| 1777068556 | 26.11° C | 38% | 1009.8 hPa | 0 mm | - | 412 W/m² | - |
| 1777068255 | 26.67° C | 35% | 1010 hPa | 0 mm | - | 432 W/m² | - |
| 1777067951 | 26.67° C | 36% | 1010 hPa | 0 mm | - | 453 W/m² | - |
| 1777067649 | 27.22° C | 33% | 1009.8 hPa | 0 mm | - | 472 W/m² | - |
* Rain latest hour (hover to see other rain measurements)
** Current wind speed in m/s (hover to see current wind gust speed)